Presure
205 206 206 196 177 207 178 197 185 191 217 209 203 188 215 137 130 210 157 203 199 147 153 140 148 134 140 130 129 139 127 137 179 140 169 170 153 156 126 116 138 126 119 128
196 195 193 209 198 186 189 201 199 187 204 223 199 186 202 203 208 168 147 151 211 246 226 125 181 220 135 125 146 119 118 145 156 177 164 131 171 152 136 125 131 130 131 124
225 212 205 206 208 204 207 200 205 216 194 185 177 205 237 188 211 125 202 141 235 206 212 193 194 221 124 131 126 150 151 158 134 156 177 153 111 139 134 128 148 136 124 131
231 226 229 229 227 229 227 235 236 221 228 241 220 243 258 259 256 232 259 137 297 297 183 231 301 159 204 130 151 146 151 136 135 170 157 125 121 133 148 158 136 137 137 147
234 235 235 230 236 224 224 233 238 239 248 245 249 276 246 242 274 302 289 124 139 148 152 150 291 153 191 156 137 135 150 150 143 144 153 157 131 137 142 146 147 161 140 136
216 235 246 244 238 233 231 239 242 252 256 263 251 266 272 301 298 287 291 222 131 229 135 147 154 158 368 234 144 148 144 159 159 148 131 124 144 170 151 142 151 150 155 124
263 250 252 254 253 231 254 248 267 278 276 291 294 314 313 318 359 351 329 340 277 139 133 134 141 432 183 387 151 144 133 132 144 154 156 155 135 131 164 133 157 130 132 132
270 283 275 260 254 260 268 311 311 310 416 452 449 365 327 307 305 314 295 321 323 178 316 242 144 149 155 161 164 151 161 149 135 138 147 161 116 191 129 142 131 167 142 144
297 291 287 338 326 324 340 404 382 359 318 309 299 293 314 128 299 289 290 295 281 282 296 310 146 153 148 154 165 144 149 146 180 150 161 164 175 143 180 127 144 143 122 119
368 382 369 355 332 318 305 303 285 283 283 278 283 286 280 281 272 160 278 274 276 189 83 174 193 143 324 149 501 149 150 144 144 145 146 151 178 135 181 155 142 136 137 147
292 292 290 291 286 280 274 268 289 288 283 281 271 263 271 268 255 268 266 274 278 277 276 278 269 207 148 139 168 169 133 236 139 147 152 154 143 155 129 183 157 152 159 134
273 269 266 266 265 357 309 276 269 280 269 264 266 261 255 258 259 256 257 257 254 266 271 280 281 276 284 300 151 132 131 322 190 154 157 146 143 123 136 148 135 141 123 149
315 321 312 288 281 268 275 266 256 259 265 257 251 257 254 253 253 248 243 247 251 256 253 229 148 173 277 273 279 286 253 144 134 140 133 139 144 143 141 142 148 131 147 140
285 275 267 260 264 261 252 256 252 256 249 251 246 250 240 240 241 250 247 241 246 244 248 241 240 268 266 264 261 258 258 201 225 141 136 138 137 144 142 137 147 151 141 137
263 257 253 250 246 241 254 259 248 169 242 233 232 236 238 236 235 240 246 242 242 175 176 179 225 252 262 262 252 249 249 256 206 167 144 143 141 246 151 139 150 153 136 142
252 256 247 243 254 245 226 247 243 236 244 228 241 234 227 237 229 230 245 228 245 230 233 246 245 236 257 165 163 163 165 164 236 169 128 131 136 141 146 145 166 145 150 139
228 171 233 230 236 241 236 230 243 234 235 236 235 245 241 239 241 229 233 235 239 240 241 234 238 240 234 233 245 250 252 254 251 250 239 177 263 263 242 259 188 225 188 142
247 241 237 236 233 232 195 148 224 176 236 233 228 228 225 227 227 247 242 236 235 233 224 219 233 242 188 244 248 246 241 242 240 241 233 199 229 239 187 145 198 195 150 254
231 226 234 230 229 225 230 221 228 226 233 231 227 146 158 157 153 223 163 235 245 235 242 240 239 220 239 238 240 243 231 239 226 169 236 241 248 241 163 150 231 258 261 268
196 249 252 251 244 252 240 243 258 233 249 243 253 260 258 260 255 245 233 232 211 231 219 213 230 230 235 232 231 237 238 246 239 217 226 237 246 229 242 241 239 229 239 249
187 187 161 170 198 218 238 259 261 259 256 242 244 246 243 336 289 275 242 256 242 234 234 231 230 243 235 230 234 231 246 231 221 217 237 241 242 241 240 232 245 233 228 213
214 154 128 144 132 179 130 128 188 105 204 147 205 204 219 235 245 279 284 283 273 280 250 246 226 225 236 248 261 246 235 249 254 254 243 241 255 255 196 237 248 227 246 236
227 252 247 142 140 139 149 164 139 143 175 169 158 176 135 184 195 183 192 201 204 238 259 263 263 260 251 245 246 239 239 238 239 239 238 237 237 237 234 239 242 239 240 213
224 244 229 222 256 251 242 167 153 139 117 176 176 164 164 143 162 126 129 184 189 164 187 177 194 197 196 195 213 220 189 221 225 228 226 223 225 225 223 224 224 220 216 215
192 185 212 237 239 217 220 233 233 242 238 236 233 150 144 200 165 143 230 183 141 138 137 141 157 150 156 162 175 165 125 145 161 175 146 165 163 187 194 193 183 193 134 158
221 209 174 186 188 251 206 215 234 270 264 256 250 247 242 242 241 237 232 212 224 228 228 214 228 231 234 234 210 208 232 233 225 221 165 205 197 196 214 164 216 178 189 175
Wind_Speed
92 92 92 85 58 87 63 76 66 67 84 79 75 66 85 68 68 81 68 80 78 67 66 62 62 60 59 60 52 46 49 46 58 46 53 52 47 47 42 39 36 37 37 27
84 85 80 93 87 73 76 82 82 62 79 77 77 68 77 83 82 73 69 68 83 90 76 65 70 87 59 56 53 53 47 51 50 55 51 42 51 47 44 42 43 39 36 30
98 93 89 89 91 89 89 88 82 91 84 70 64 73 87 75 76 64 80 68 72 71 78 76 75 72 60 58 57 51 49 49 52 49 56 50 40 46 46 43 45 38 35 35
98 96 95 97 96 96 95 96 95 89 89 89 85 80 89 89 91 84 89 62 79 77 66 73 88 62 78 60 57 56 53 55 56 56 49 46 44 48 52 55 44 42 40 47
89 91 99 89 92 82 82 86 86 85 89 87 91 82 84 87 83 77 74 55 58 61 61 61 88 63 70 62 61 58 56 55 57 55 53 55 47 51 52 52 51 58 45 45
66 84 94 98 93 81 77 82 84 91 90 91 83 83 79 65 66 72 72 54 54 65 54 54 55 55 88 76 61 58 57 59 55 55 49 46 52 64 55 50 54 52 53 39
82 85 84 86 92 69 90 81 85 85 86 79 73 64 66 62 44 28 25 21 21 39 56 56 57 42 56 70 61 60 55 54 53 53 53 55 53 46 61 48 58 40 40 42
73 70 73 75 81 77 73 67 64 61 40 31 23 13 11 11 14 14 16 10 15 44 14 22 59 58 57 56 58 59 59 56 49 48 49 53 39 69 46 51 44 58 52 53
55 54 56 51 51 49 47 17 13 9 11 12 12 12 18 6 19 17 7 16 4 4 14 17 56 55 57 58 56 53 56 53 48 50 54 56 60 52 65 44 52 51 34 38
15 18 11 10 13 14 12 15 17 17 15 16 22 27 27 24 19 11 18 14 12 22 20 2 32 54 16 54 11 55 54 50 47 49 48 49 58 50 64 56 51 46 46 55
22 19 17 17 17 20 22 20 19 22 26 35 34 23 23 21 10 15 13 16 20 21 22 21 15 19 44 37 50 53 49 39 46 49 49 50 50 54 46 65 57 53 57 48
21 21 22 22 23 24 36 33 28 36 37 32 31 24 20 16 17 18 18 18 18 25 25 27 29 27 26 37 7 50 46 21 61 50 50 45 46 43 45 48 46 47 39 53
27 32 41 43 46 36 37 38 31 33 31 27 18 19 18 18 17 17 13 20 19 18 17 2 41 31 30 27 28 26 7 50 45 46 43 45 46 46 46 48 51 43 51 49
40 45 42 38 36 38 32 32 28 26 22 19 18 21 17 14 14 17 15 14 13 13 14 10 4 21 25 22 15 8 12 10 15 50 49 48 46 50 49 46 53 56 51 51
43 39 35 33 30 22 24 26 24 9 25 21 18 15 15 12 12 13 11 13 13 18 20 22 4 18 17 17 10 3 4 5 26 53 51 51 49 12 56 49 56 57 48 55
34 37 29 25 27 24 23 27 26 24 18 16 14 12 8 10 10 12 11 7 11 8 9 11 12 7 16 38 39 41 44 46 3 52 43 46 48 53 57 55 60 57 60 52
25 11 26 27 26 24 24 25 21 18 15 16 14 10 10 8 7 5 4 9 7 7 11 9 9 9 6 2 10 12 9 10 7 7 11 43 9 12 18 17 51 31 43 60
31 29 25 24 21 21 11 5 17 3 11 11 10 8 5 9 8 7 6 4 5 4 3 9 1 3 18 2 6 5 3 1 6 6 6 26 14 15 40 59 38 41 64 23
25 26 21 20 17 15 12 14 9 10 6 6 6 17 14 16 17 2 18 4 3 5 2 5 5 5 3 2 2 5 8 5 10 43 11 8 7 12 57 62 21 13 16 17
31 17 11 7 10 5 10 6 4 8 9 11 13 15 19 20 14 8 8 7 8 4 4 7 5 4 5 7 8 7 6 6 10 22 20 14 11 20 17 17 18 24 20 13
20 22 11 14 24 15 9 7 3 4 9 12 15 15 15 7 12 11 10 15 10 8 8 9 11 12 12 12 13 14 15 16 19 22 17 17 17 16 19 23 21 24 25 27
18 5 9 6 14 9 13 13 13 18 18 6 16 18 18 17 17 11 7 5 8 9 15 16 16 17 19 17 16 17 20 18 18 19 21 22 23 23 30 27 26 24 28 26
23 22 22 13 14 15 12 7 17 15 1 6 8 2 18 4 8 4 5 6 7 11 9 9 10 10 9 10 10 13 13 14 14 14 15 17 19 20 21 20 20 22 23 31
26 28 23 19 23 21 19 15 17 21 21 6 6 10 10 19 16 25 24 10 11 15 11 13 15 16 16 17 19 19 19 22 23 23 23 25 26 27 28 28 29 30 32 33
16 17 25 22 28 22 19 18 18 21 21 20 19 26 25 19 26 28 18 22 27 26 27 27 28 32 32 30 28 32 38 37 31 33 37 32 33 33 36 37 40 40 40 38
26 26 10 21 24 27 20 15 15 17 18 20 22 23 23 23 22 22 22 25 22 23 21 22 23 25 25 27 31 31 28 29 32 34 44 38 39 41 40 47 42 48 48 49
Wind_Direction
239 240 243 248 248 250 250 254 252 252 251 253 256 253 257 227 232 257 234 253 246 230 231 234 232 227 225 227 226 232 242 239 245 247 245 246 253 253 245 257 247 248 258 259
242 244 248 245 249 253 253 252 256 245 258 257 258 253 259 261 259 246 232 231 254 260 258 239 240 246 231 237 234 245 262 241 244 246 246 246 247 253 251 250 252 253 270 258
241 242 246 248 250 252 254 255 255 256 259 252 246 256 265 256 259 236 250 233 259 250 253 243 246 246 244 237 239 233 234 239 239 240 246 244 263 253 252 253 263 259 255 266
243 244 247 247 249 251 254 257 258 258 261 265 261 265 270 270 267 262 266 239 266 264 240 251 261 236 249 244 237 232 232 241 241 244 239 249 259 252 251 255 258 262 265 265
244 247 249 253 254 256 259 262 264 264 265 267 269 269 263 263 269 274 271 241 241 237 234 235 261 234 243 232 245 244 234 234 238 239 236 238 254 252 252 252 253 255 263 269
247 250 251 253 258 260 262 266 268 270 269 270 268 270 269 270 270 268 270 266 240 262 240 236 234 237 262 249 239 239 242 244 241 241 256 266 250 245 253 257 252 255 258 268
249 251 254 256 259 259 265 267 269 269 269 265 270 271 270 272 271 270 267 257 258 240 237 237 235 286 239 251 238 241 248 250 245 242 244 247 258 263 251 258 255 265 269 272
253 252 253 256 259 260 260 266 268 269 266 263 260 235 231 228 238 245 252 97 42 236 337 267 233 233 232 235 238 240 240 241 249 248 245 250 265 243 261 259 266 259 263 263
260 254 252 267 264 266 267 254 237 178 159 166 161 169 136 164 121 136 165 79 95 344 27 18 233 235 237 238 237 248 246 247 250 248 249 247 251 251 254 262 261 263 266 265
257 256 234 182 153 144 146 141 132 141 137 132 128 123 125 131 144 178 96 98 98 229 215 232 236 237 32 239 327 243 245 249 249 249 248 250 251 256 255 261 268 276 275 274
115 118 119 120 131 134 141 150 135 128 132 126 128 138 125 135 190 117 112 89 75 70 62 58 61 235 236 239 241 243 254 256 253 251 250 248 249 253 261 258 259 262 265 275
109 111 120 130 136 120 120 119 124 127 130 138 130 133 143 120 99 82 70 68 74 74 66 60 73 77 71 66 263 250 254 49 245 250 251 250 252 263 263 260 268 267 273 265
98 101 108 110 113 118 118 120 129 136 129 138 137 115 105 96 96 96 96 79 68 73 68 96 233 235 71 73 73 73 82 251 258 256 258 257 257 260 263 266 267 269 270 272
106 112 113 117 117 115 123 133 134 125 118 104 90 88 90 79 73 80 80 89 81 79 63 77 90 79 83 79 82 81 63 265 246 257 261 263 266 267 268 268 269 268 270 272
108 113 113 111 115 123 120 118 108 149 98 99 96 92 84 85 76 66 70 69 80 226 229 231 116 73 77 80 77 101 155 97 253 254 260 262 266 311 266 266 270 270 271 272
97 112 115 106 108 98 108 83 97 94 99 93 98 125 104 72 88 79 79 88 81 76 77 69 72 50 76 242 243 245 246 249 210 255 260 264 270 271 271 271 270 271 272 269
105 95 93 98 86 84 83 86 87 79 80 84 88 114 135 102 113 97 79 75 90 66 83 83 85 83 78 36 76 76 78 94 102 95 239 262 7 353 293 329 272 285 277 270
82 89 90 90 86 85 99 219 100 131 99 82 91 78 116 106 100 164 201 134 146 152 226 277 157 114 254 71 86 102 57 318 285 281 272 267 281 285 271 267 276 282 272 319
67 63 74 75 78 71 74 70 74 65 46 9 11 249 244 243 246 75 255 85 182 153 156 163 139 232 108 129 133 148 269 260 266 264 277 264 277 278 270 272 287 339 350 8
65 63 52 32 55 11 44 34 300 37 321 352 342 327 307 300 300 282 262 273 255 226 273 293 229 251 258 257 259 254 240 282 280 269 265 261 269 269 265 270 285 298 302 326
72 77 75 44 58 60 45 359 338 24 67 50 47 37 33 15 284 279 284 255 259 259 266 268 280 262 264 271 274 278 284 272 265 265 282 287 292 295 293 286 301 292 299 295
31 305 263 282 238 43 240 247 66 273 39 282 49 43 36 43 44 37 22 351 319 286 268 275 290 291 299 295 300 296 298 301 311 310 307 307 319 318 283 299 307 295 310 305
31 24 22 252 255 253 294 310 265 285 61 250 237 65 256 40 9 11 15 24 22 16 357 332 315 315 328 331 324 313 309 300 299 299 299 297 299 299 297 299 300 297 298 291
17 24 19 18 8 6 5 282 287 270 266 289 278 254 259 278 275 256 252 305 315 272 308 296 310 309 305 302 304 298 296 301 300 293 291 290 287 286 287 286 285 287 288 287
355 353 11 21 18 1 3 348 350 343 338 336 334 272 284 314 288 288 325 297 270 268 267 279 290 290 291 285 288 285 261 277 280 290 285 285 284 291 286 290 287 293 284 282
356 348 301 343 340 23 355 354 350 326 323 322 322 322 323 322 318 316 311 300 307 307 303 293 295 293 293 291 289 291 290 288 288 288 286 284 278 283 287 287 290 287 289 287